FW0864 Weather Reports


Display with metric or nautical units.
time (UTC)temp
F
wind
direction
speed
MPH
gust
MPH
rain 1hr
in
rain 24hr
in
rain mn
in
humidity
%
barometer
mb
20260507154022 64 305 3.0 7.0 0.00 0.00 0.00 80 1015.3
20260507153521 64 264 4.0 8.0 0.00 0.00 0.00 81 1015.3
20260507153025 63 290 3.0 8.0 0.00 0.00 0.00 82 1015.2
20260507152519 63 332 2.0 5.0 0.00 0.00 0.00 83 1015.3
20260507152020 62 264 3.0 5.0 0.00 0.00 0.00 84 1015.3
20260507151517 62 325 3.0 7.0 0.00 0.00 0.00 84 1015.3
20260507151015 62 298 3.0 7.0 0.00 0.00 0.00 85 1015.3
20260507150515 61 327 3.0 5.0 0.00 0.00 0.00 85 1015.2
20260507150017 61 335 2.0 5.0 0.00 0.00 0.00 86 1015.3
20260507145514 61 306 2.0 5.0 0.00 0.00 0.00 86 1015.4
20260507145016 60 314 1.0 4.0 0.00 0.00 0.00 87 1015.4
20260507144510 60 343 1.0 3.0 0.00 0.00 0.00 87 1015.4
20260507144009 60 305 1.0 6.0 0.00 0.00 0.00 87 1015.4
20260507143508 59 321 4.0 6.0 0.00 0.00 0.00 87 1015.4
20260507143007 59 348 3.0 5.0 0.00 0.00 0.00 87 1015.3
20260507142508 59 335 2.0 5.0 0.00 0.00 0.00 88 1015.3
20260507142003 59 290 1.0 5.0 0.00 0.00 0.00 88 1015.3
20260507141502 59 310 2.0 5.0 0.00 0.00 0.00 88 1015.2
20260507141100 59 335 2.0 5.0 0.00 0.00 0.00 88 1015.2
20260507140600 58 354 3.0 5.0 0.00 0.00 0.00 88 1015.2
20260507140113 58 305 1.0 3.0 0.00 0.00 0.00 88 1015.1
20260507135556 58 297 0.0 3.0 0.00 0.00 0.00 88 1015.0
20260507135056 58 295 1.0 3.0 0.00 0.00 0.00 88 1015.0
20260507134600 58 343 1.0 3.0 0.00 0.00 0.00 88 1015.0
20260507134054 58 288 0.0 2.0 0.00 0.00 0.00 88 1014.9
20260507133553 58 267 0.0 2.0 0.00 0.00 0.00 88 1014.8
20260507133059 58 283 0.0 1.0 0.00 0.00 0.00 88 1014.8
20260507132550 58 293 0.0 0.0 0.00 0.00 0.00 88 1014.7
20260507132050 58 291 0.0 3.0 0.00 0.00 0.00 88 1014.7
20260507131614 58 290 1.0 3.0 0.00 0.00 0.00 88 1014.6
20260507131049 58 320 0.0 2.0 0.00 0.00 0.00 88 1014.6
20260507130547 58 294 0.0 3.0 0.00 0.00 0.00 87 1014.6
20260507130047 58 294 0.0 3.0 0.00 0.00 0.00 87 1014.5
20260507125547 58 295 0.0 2.0 0.00 0.00 0.00 87 1014.6
20260507125046 58 288 0.0 3.0 0.00 0.00 0.00 87 1014.6
20260507124553 58 287 1.0 3.0 0.00 0.00 0.00 87 1014.6
20260507124046 58 288 1.0 3.0 0.00 0.00 0.00 87 1014.5
20260507123546 58 289 0.0 1.0 0.00 0.00 0.00 87 1014.5
20260507123047 59 289 0.0 0.0 0.00 0.00 0.00 87 1014.5
20260507122545 59 294 0.0 0.0 0.00 0.00 0.00 86 1014.5
20260507122049 59 295 0.0 0.0 0.00 0.00 0.00 86 1014.5
20260507121545 59 294 0.0 0.0 0.00 0.00 0.00 86 1014.5
20260507121044 59 294 0.0 0.0 0.00 0.00 0.00 86 1014.5
20260507120543 59 295 0.0 0.0 0.00 0.00 0.00 86 1014.5
20260507120044 59 294 0.0 0.0 0.00 0.00 0.00 86 1014.5
20260507115542 59 295 0.0 0.0 0.00 0.00 0.00 86 1014.5
20260507115041 59 289 0.0 0.0 0.00 0.00 0.00 86 1014.4
20260507114541 59 292 0.0 0.0 0.00 0.00 0.00 85 1014.4
20260507114046 59 293 0.0 0.0 0.00 0.00 0.00 85 1014.5
20260507113540 59 293 0.0 1.0 0.00 0.00 0.00 85 1014.5
20260507113103 60 283 0.0 3.0 0.00 0.00 0.00 85 1014.6
20260507112543 60 272 1.0 3.0 0.00 0.00 0.00 85 1014.6
20260507112039 60 314 0.0 2.0 0.00 0.00 0.00 85 1014.6
20260507111539 60 314 1.0 2.0 0.00 0.00 0.00 85 1014.6
20260507111037 60 316 1.0 2.0 0.00 0.00 0.00 85 1014.5
20260507110537 60 320 0.0 2.0 0.00 0.00 0.00 85 1014.5
20260507110040 60 331 0.0 3.0 0.00 0.00 0.00 84 1014.5
20260507105537 60 331 0.0 3.0 0.00 0.00 0.00 84 1014.5
20260507105036 60 335 0.0 2.0 0.00 0.00 0.00 84 1014.5
20260507104536 60 335 0.0 2.0 0.00 0.00 0.00 84 1014.5
20260507104035 60 335 0.0 3.0 0.00 0.00 0.00 84 1014.5
20260507103535 60 325 1.0 3.0 0.00 0.00 0.00 84 1014.4
20260507103034 60 297 1.0 3.0 0.00 0.00 0.00 84 1014.4
20260507102535 60 330 1.0 3.0 0.00 0.00 0.00 84 1014.4
20260507102033 61 8 1.0 3.0 0.00 0.00 0.00 83 1014.5
20260507101532 61 320 1.0 4.0 0.00 0.00 0.00 83 1014.4
20260507101031 61 310 2.0 4.0 0.00 0.00 0.00 83 1014.4
20260507100529 61 278 2.0 4.0 0.00 0.00 0.00 83 1014.5
20260507100041 61 313 2.0 4.0 0.00 0.00 0.00 83 1014.5
20260507095532 61 300 1.0 4.0 0.00 0.00 0.00 83 1014.4
20260507095033 61 317 1.0 3.0 0.00 0.00 0.00 83 1014.5
20260507094529 61 294 1.0 3.0 0.00 0.00 0.00 83 1014.5
20260507094028 61 297 0.0 3.0 0.00 0.00 0.00 83 1014.5
20260507093527 61 293 1.0 3.0 0.00 0.00 0.00 83 1014.6
20260507093031 61 329 0.0 3.0 0.00 0.00 0.00 83 1014.6
20260507092527 61 340 1.0 3.0 0.00 0.00 0.00 83 1014.7
20260507092026 61 334 1.0 3.0 0.00 0.00 0.00 82 1014.6
20260507091529 62 330 0.0 3.0 0.00 0.00 0.00 82 1014.7
20260507091025 62 317 1.0 3.0 0.00 0.00 0.00 82 1014.7
20260507090525 62 328 0.0 2.0 0.00 0.00 0.00 82 1014.7
20260507090024 62 335 0.0 2.0 0.00 0.00 0.00 81 1014.8
20260507085523 62 344 0.0 4.0 0.00 0.00 0.00 81 1014.8
20260507085023 62 321 2.0 5.0 0.00 0.00 0.00 81 1014.8
20260507084542 62 335 2.0 5.0 0.00 0.00 0.00 80 1014.8
20260507084022 62 325 1.0 4.0 0.00 0.00 0.00 80 1014.8
20260507083520 63 332 2.0 4.0 0.00 0.00 0.00 79 1014.9
20260507083024 63 316 2.0 4.0 0.00 0.00 0.00 79 1014.9
20260507082519 63 269 2.0 4.0 0.00 0.00 0.00 78 1014.9
20260507082018 63 301 0.0 4.0 0.00 0.00 0.00 78 1014.9
20260507081517 64 311 1.0 5.0 0.00 0.00 0.00 77 1014.8
20260507081017 64 320 2.0 5.0 0.00 0.00 0.00 77 1014.9
20260507080515 64 354 3.0 5.0 0.00 0.00 0.00 76 1014.9
20260507080016 64 322 2.0 4.0 0.00 0.00 0.00 76 1014.8
20260507075513 65 295 2.0 5.0 0.00 0.00 0.00 76 1014.8
20260507075019 65 307 2.0 5.0 0.00 0.00 0.00 75 1014.8
20260507074513 65 335 2.0 6.0 0.00 0.00 0.00 75 1014.8
20260507074011 65 341 3.0 6.0 0.00 0.00 0.00 75 1014.9
20260507073511 65 4 2.0 5.0 0.00 0.00 0.00 74 1014.9
20260507073012 65 327 2.0 5.0 0.00 0.00 0.00 74 1014.9
20260507072512 65 319 1.0 3.0 0.00 0.00 0.00 74 1014.9
20260507072010 65 325 1.0 2.0 0.00 0.00 0.00 73 1014.9
20260507071515 65 325 0.0 1.0 0.00 0.00 0.00 73 1014.9
20260507071009 66 325 0.0 1.0 0.00 0.00 0.00 72 1014.9
20260507070507 66 325 0.0 2.0 0.00 0.00 0.00 72 1014.8
20260507070015 66 325 0.0 2.0 0.00 0.00 0.00 72 1014.8
20260507065505 66 325 0.0 2.0 0.00 0.00 0.00 71 1014.8
20260507065006 66 325 0.0 3.0 0.00 0.00 0.00 71 1014.8
20260507064507 66 322 0.0 2.0 0.00 0.00 0.00 71 1014.8
20260507064006 66 326 0.0 0.0 0.00 0.00 0.00 70 1014.8
20260507063506 67 326 0.0 0.0 0.00 0.00 0.00 70 1014.8
20260507063007 67 326 0.0 0.0 0.00 0.00 0.00 70 1014.7
20260507062505 67 326 0.0 0.0 0.00 0.00 0.00 70 1014.7
20260507062005 67 326 0.0 0.0 0.00 0.00 0.00 69 1014.7
20260507061506 67 326 0.0 0.0 0.00 0.00 0.00 69 1014.8
20260507061007 67 326 0.0 0.0 0.00 0.00 0.00 69 1014.7
20260507060504 67 327 0.0 0.0 0.00 0.00 0.00 69 1014.7
20260507060004 67 327 0.0 0.0 0.00 0.00 0.00 68 1014.7
20260507055505 68 327 0.0 0.0 0.00 0.00 0.00 68 1014.6
20260507055004 68 328 0.0 0.0 0.00 0.00 0.00 67 1014.7
20260507054508 68 329 0.0 0.0 0.00 0.00 0.00 67 1014.7
20260507054004 68 328 0.0 0.0 0.00 0.00 0.00 67 1014.8
20260507053504 68 329 0.0 0.0 0.00 0.00 0.00 66 1014.8
20260507053005 68 329 0.0 0.0 0.00 0.00 0.00 66 1014.7
20260507052504 69 335 0.0 0.0 0.00 0.00 0.00 66 1014.7
20260507052004 69 343 0.0 0.0 0.00 0.00 0.00 65 1014.7
20260507051504 69 311 0.0 0.0 0.00 0.00 0.00 65 1014.8
20260507051006 69 336 0.0 2.0 0.00 0.00 0.00 65 1014.7
20260507050502 69 332 0.0 3.0 0.00 0.00 0.00 65 1014.7
20260507050009 69 330 1.0 3.0 0.00 0.00 0.00 64 1014.7
20260507045503 69 295 0.0 3.0 0.00 0.00 0.00 64 1014.7
20260507045003 70 337 1.0 3.0 0.00 0.00 0.00 64 1014.7
20260507044503 70 328 1.0 3.0 0.00 0.00 0.00 63 1014.7
20260507044002 70 344 1.0 3.0 0.00 0.00 0.00 63 1014.7
20260507043502 70 339 1.0 3.0 0.00 0.00 0.00 63 1014.7
20260507043002 70 271 1.0 3.0 0.00 0.00 0.00 62 1014.7
20260507042503 70 297 1.0 5.0 0.00 0.00 0.00 62 1014.7
20260507042002 70 31 1.0 5.0 0.00 0.00 0.00 62 1014.6
20260507041503 71 343 1.0 4.0 0.00 0.00 0.00 61 1014.6
20260507041001 71 327 0.0 2.0 0.00 0.00 0.00 61 1014.7
20260507040501 71 305 1.0 3.0 0.00 0.00 0.00 60 1014.6
20260507040001 71 310 1.0 3.0 0.00 0.00 0.00 60 1014.6
20260507035501 71 310 0.0 3.0 0.00 0.00 0.00 60 1014.5
20260507035001 71 282 0.0 3.0 0.00 0.00 0.00 59 1014.4
20260507034607 71 306 1.0 3.0 0.00 0.00 0.00 59 1014.4
20260507034100 72 337 1.0 3.0 0.00 0.00 0.00 58 1014.3
20260507033600 72 341 1.0 4.0 0.00 0.00 0.00 58 1014.2
20260507033103 72 337 2.0 5.0 0.00 0.00 0.00 57 1014.1
20260507032559 72 323 2.0 5.0 0.00 0.00 0.00 57 1014.1
20260507032059 73 328 1.0 4.0 0.00 0.00 0.00 56 1014.1
20260507031559 73 330 1.0 3.0 0.00 0.00 0.00 55 1014.1
20260507031059 73 322 1.0 3.0 0.00 0.00 0.00 55 1014.1
20260507030558 73 261 1.0 7.0 0.00 0.00 0.00 54 1014.0
20260507030058 74 276 2.0 7.0 0.00 0.00 0.00 54 1014.0
20260507025558 74 310 2.0 5.0 0.00 0.00 0.00 53 1013.9
20260507025100 74 294 2.0 7.0 0.00 0.00 0.00 53 1013.8
20260507024558 74 315 2.0 5.0 0.00 0.00 0.00 52 1013.8
20260507024107 75 297 2.0 6.0 0.00 0.00 0.00 52 1013.7
20260507023602 75 309 2.0 8.0 0.00 0.00 0.00 51 1013.7
20260507023058 75 347 2.0 8.0 0.00 0.00 0.00 51 1013.7
20260507022557 76 316 3.0 6.0 0.00 0.00 0.00 50 1013.6
20260507022058 76 12 3.0 5.0 0.00 0.00 0.00 49 1013.6
20260507021605 76 328 2.0 8.0 0.00 0.00 0.00 49 1013.5
20260507021057 76 329 2.0 6.0 0.00 0.00 0.00 48 1013.5
20260507020557 76 325 2.0 9.0 0.00 0.00 0.00 48 1013.5
20260507020058 76 335 3.0 10.0 0.00 0.00 0.00 47 1013.5
20260507015556 77 314 3.0 10.0 0.00 0.00 0.00 47 1013.4
20260507015057 77 330 3.0 8.0 0.00 0.00 0.00 46 1013.4
20260507014558 77 297 4.0 8.0 0.00 0.00 0.00 45 1013.4
20260507014056 78 284 4.0 8.0 0.00 0.00 0.00 45 1013.4
20260507013556 78 343 2.0 8.0 0.00 0.00 0.00 46 1013.4
20260507013055 78 250 2.0 8.0 0.00 0.00 0.00 46 1013.4
20260507012559 78 243 3.0 7.0 0.00 0.00 0.00 46 1013.4
20260507012055 78 280 3.0 9.0 0.00 0.00 0.00 45 1013.4
20260507011558 79 311 4.0 9.0 0.00 0.00 0.00 44 1013.3
20260507011054 78 320 3.0 8.0 0.00 0.00 0.00 45 1013.4
20260507010554 79 324 3.0 6.0 0.00 0.00 0.00 44 1013.4
20260507010054 78 256 1.0 8.0 0.00 0.00 0.00 46 1013.4
20260507005554 78 272 4.0 10.0 0.00 0.00 0.00 45 1013.5
20260507005054 78 339 3.0 10.0 0.00 0.00 0.00 46 1013.5
20260507004554 78 256 4.0 8.0 0.00 0.00 0.00 45 1013.5
20260507004053 78 295 4.0 10.0 0.00 0.00 0.00 45 1013.5
20260507003553 78 289 7.0 10.0 0.00 0.00 0.00 46 1013.5
20260507003053 78 306 5.0 11.0 0.00 0.00 0.00 45 1013.6
20260507002552 78 253 5.0 11.0 0.00 0.00 0.00 45 1013.6
20260507002052 78 241 6.0 11.0 0.00 0.00 0.00 45 1013.5
20260507001556 78 10 4.0 11.0 0.00 0.00 0.00 45 1013.6
20260507001052 78 317 4.0 12.0 0.00 0.00 0.00 45 1013.7
20260507000551 78 299 5.0 12.0 0.00 0.00 0.00 45 1013.6
20260507000054 78 269 5.0 11.0 0.00 0.00 0.00 45 1013.6
20260506235551 78 260 2.0 9.0 0.00 0.00 0.00 44 1013.5
20260506235050 78 338 4.0 9.0 0.00 0.00 0.00 45 1013.6
20260506234609 78 332 4.0 11.0 0.00 0.00 0.00 45 1013.6
20260506234053 78 319 5.0 11.0 0.00 0.00 0.00 45 1013.6
20260506233551 78 291 2.0 10.0 0.00 0.00 0.00 44 1013.6
20260506233050 79 283 5.0 10.0 0.00 0.00 0.00 44 1013.7
20260506232554 79 268 4.0 10.0 0.00 0.00 0.00 44 1013.7
20260506232050 79 248 3.0 10.0 0.00 0.00 0.00 44 1013.6
20260506231549 79 11 2.0 10.0 0.00 0.00 0.00 44 1013.7
20260506231052 79 335 3.0 8.0 0.00 0.00 0.00 43 1013.8
20260506230553 79 4 1.0 9.0 0.00 0.00 0.00 44 1013.8
20260506230047 79 359 5.0 10.0 0.00 0.00 0.00 43 1013.9
20260506225548 79 243 4.0 10.0 0.00 0.00 0.00 44 1013.9
20260506225045 78 38 3.0 10.0 0.00 0.00 0.00 45 1014.0
20260506224547 78 304 3.0 6.0 0.00 0.00 0.00 44 1014.1
20260506224046 78 229 2.0 9.0 0.00 0.00 0.00 44 1014.2
20260506223543 78 226 4.0 10.0 0.00 0.00 0.00 44 1014.3
20260506223048 78 245 4.0 10.0 0.00 0.00 0.00 44 1014.3
20260506222543 78 251 3.0 10.0 0.00 0.00 0.00 43 1014.4
20260506222045 78 91 1.0 4.0 0.00 0.00 0.00 44 1014.4
20260506221540 77 245 1.0 9.0 0.00 0.00 0.00 45 1014.5
20260506221042 77 287 3.0 9.0 0.00 0.00 0.00 44 1014.6
20260506220538 77 328 2.0 5.0 0.00 0.00 0.00 46 1014.7
20260506220038 76 349 1.0 10.0 0.00 0.00 0.00 46 1014.8
20260506215539 76 283 4.0 10.0 0.00 0.00 0.00 46 1014.9
20260506215037 77 300 4.0 9.0 0.00 0.00 0.00 45 1014.9
20260506214540 76 301 0.0 8.0 0.00 0.00 0.00 46 1014.9
20260506214037 75 4 1.0 8.0 0.00 0.00 0.00 46 1015.1
20260506213539 76 302 4.0 10.0 0.00 0.00 0.00 46 1015.1
20260506213037 77 328 3.0 8.0 0.00 0.00 0.00 45 1015.2
20260506212537 77 17 1.0 7.0 0.00 0.00 0.00 45 1015.2
20260506212037 77 219 4.0 8.0 0.00 0.00 0.00 45 1015.3
20260506211537 76 64 3.0 10.0 0.00 0.00 0.00 46 1015.3
20260506211036 77 4 3.0 12.0 0.00 0.00 0.00 44 1015.3
20260506210535 77 305 1.0 8.0 0.00 0.00 0.00 45 1015.4
20260506210038 75 114 2.0 9.0 0.00 0.00 0.00 46 1015.5
20260506205534 76 344 3.0 10.0 0.00 0.00 0.00 46 1015.4
20260506205035 76 319 4.0 10.0 0.00 0.00 0.00 48 1015.5
20260506204548 77 64 4.0 9.0 0.00 0.00 0.00 46 1015.5
20260506204036 76 197 1.0 6.0 0.00 0.00 0.00 48 1015.5
20260506203534 76 32 3.0 6.0 0.00 0.00 0.00 46 1015.6
20260506203033 76 263 1.0 5.0 0.00 0.00 0.00 48 1015.6
20260506202531 75 354 2.0 5.0 0.00 0.00 0.00 48 1015.7
20260506202033 74 237 2.0 7.0 0.00 0.00 0.00 50 1015.8
20260506201534 73 245 3.0 10.0 0.00 0.00 0.00 50 1015.9
20260506201029 74 249 6.0 10.0 0.00 0.00 0.00 49 1016.1
20260506200529 74 338 3.0 8.0 0.00 0.00 0.00 49 1016.1
20260506200028 74 45 1.0 7.0 0.00 0.00 0.00 49 1016.1
20260506195526 73 76 3.0 7.0 0.00 0.00 0.00 50 1016.2
20260506195026 73 264 3.0 10.0 0.00 0.00 0.00 50 1016.2
20260506194526 73 238 5.0 11.0 0.00 0.00 0.00 51 1016.3
20260506194025 73 291 3.0 11.0 0.00 0.00 0.00 52 1016.4
20260506193525 73 330 2.0 11.0 0.00 0.00 0.00 51 1016.5
20260506193024 73 63 5.0 11.0 0.00 0.00 0.00 50 1016.5
20260506192524 72 151 1.0 11.0 0.00 0.00 0.00 53 1016.6
20260506192024 72 257 5.0 11.0 0.00 0.00 0.00 52 1016.6
20260506191526 72 246 4.0 9.0 0.00 0.00 0.00 53 1016.8
20260506191023 72 308 3.0 9.0 0.00 0.00 0.00 52 1016.8
20260506190521 73 191 3.0 5.0 0.00 0.00 0.00 53 1016.9
20260506190022 72 252 1.0 5.0 0.00 0.00 0.00 52 1016.8
20260506185520 71 46 2.0 5.0 0.00 0.00 0.00 55 1016.9
20260506185019 70 293 2.0 6.0 0.00 0.00 0.00 55 1016.9
20260506184518 70 49 3.0 9.0 0.00 0.00 0.00 55 1016.9
20260506184018 70 224 3.0 9.0 0.00 0.00 0.00 56 1016.9
20260506183517 71 283 2.0 7.0 0.00 0.00 0.00 57 1017.0
20260506183016 70 354 2.0 4.0 0.00 0.00 0.00 58 1017.0
20260506182515 69 64 1.0 8.0 0.00 0.00 0.00 60 1017.0
20260506182013 69 310 4.0 9.0 0.00 0.00 0.00 60 1017.0
20260506181519 69 328 3.0 9.0 0.00 0.00 0.00 60 1017.1
20260506181011 69 247 2.0 6.0 0.00 0.00 0.00 61 1017.0
20260506180515 68 337 3.0 9.0 0.00 0.00 0.00 62 1017.0
20260506180011 68 258 5.0 9.0 0.00 0.00 0.00 61 1017.1
20260506175509 68 280 3.0 8.0 0.00 0.00 0.00 61 1017.1
20260506175007 68 328 3.0 8.0 0.00 0.00 0.00 63 1017.1
20260506174507 67 312 2.0 9.0 0.00 0.00 0.00 65 1017.1
20260506174004 66 120 3.0 9.0 0.00 0.00 0.00 65 1017.2
20260506173504 66 359 3.0 8.0 0.00 0.00 0.00 66 1017.2
20260506173002 65 315 3.0 8.0 0.00 0.00 0.00 67 1017.2
20260506172602 65 316 2.0 9.0 0.00 0.00 0.00 68 1017.1
20260506172059 65 249 3.0 9.0 0.00 0.00 0.00 68 1017.1
20260506171600 65 291 5.0 9.0 0.00 0.00 0.00 69 1017.1
20260506171056 65 309 3.0 8.0 0.00 0.00 0.00 69 1017.1
20260506170554 64 337 2.0 10.0 0.00 0.00 0.00 69 1017.2
20260506170053 64 310 4.0 10.0 0.00 0.00 0.00 70 1017.3
20260506165551 64 310 3.0 9.0 0.00 0.00 0.00 72 1017.2
20260506165049 63 243 6.0 9.0 0.00 0.00 0.00 72 1017.3
20260506164552 63 333 4.0 12.0 0.00 0.00 0.00 72 1017.2
20260506164048 63 258 6.0 12.0 0.00 0.00 0.00 73 1017.2
20260506163545 63 354 4.0 9.0 0.00 0.00 0.00 74 1017.1
20260506163046 62 338 2.0 9.0 0.00 0.00 0.00 75 1017.1
20260506162543 62 290 4.0 10.0 0.00 0.00 0.00 75 1017.2
20260506162042 61 254 4.0 11.0 0.00 0.00 0.00 76 1017.2
20260506161546 61 276 4.0 11.0 0.00 0.00 0.00 76 1017.3
20260506161040 61 319 5.0 10.0 0.00 0.00 0.00 77 1017.3
20260506160539 61 346 5.0 10.0 0.00 0.00 0.00 78 1017.3
20260506160044 60 334 5.0 10.0 0.00 0.00 0.00 78 1017.3
20260506155537 60 277 4.0 10.0 0.00 0.00 0.00 79 1017.3
20260506155036 60 275 5.0 9.0 0.00 0.00 0.00 80 1017.4
20260506154534 59 316 4.0 9.0 0.00 0.00 0.00 80 1017.3